SCP
0 0 0 0 0 0 0 0 0 0 0 0 0 0 0 0 0 0 0 0 0 0 0 0 0 0 0 0 0 0 0 0 0 0 0 0 0 0
0 0 0 0 0 0 0 0 0 0 0 0 0 0 0 0 0 0 0 0 0 0 0 0 0 0 0 0 0 0 0 0 0 0 0 0 0 0
0 0 0 0 0 0 0 0 0 0 0 0 0 0 0 0 0 0 0 0 0 0 0 0 0 0 0 0 0 0 0 0 0 0 0 0 0 0
0 0 0 0 0 0 0 0 0 0 0 0 0 0 0 0 0 0 0 0 0 0 0 0 0 0 0 0 0 0 0 0 0 0 0 0 0 0
0 0 0 0 0 0 0 0 0 0 0 0 0 0 0 0 0 0 0 0 0 0 0 0 0 0 0 0 0 0 0 0 0 0 0 0 0 0
0 0 0 0 0 0 0 0 0 0 0 0 0 0 0 0 0 0 0 0 0 0 0 0 0 0 0 0 0 0 0 0 0 0 0 0 0 0
0 0 0 0 0 0 0 0 0 0 0 0 0 0 0 0 0 0 0 0 0 0 0 0 0 0 0 0 0 0 0 0 0 0 0 0 0 0
0 0 0 0 0 0 0 0 0 0 0 0 0 0 0 0 0 0 0 0 0 0 0 0 0 0 0 0 0 0 0 0 0 0 0 0 0 0
0 0 0 0 0 0 0 0 0 0 0 0 0 0 0 0 0 0 0 0 0 0 0 0 0 0 0 0 0 0 0 0 0 0 0 0 0 0
0 0 0 0 0 0 0 0 0 0 0 0 0 0 0 0 0 0 0 0 0 0 0 0 0 0 0 0 0 0 0 0 0 0 0 0 0 0
0 0 0 0 0 0 0 0 0 0 0 0 0 0 0 0 0 0 0 0 0 0 0 0 0 0 0 0 0 0 0 0 0 0 0 0 0 0
0 0 0 0 0 0 0 0 0 0 0 0 0 0 0 0 0 0 0 0 0 0 0 0 0 0 0 0 0 0 0 0 0 0 0 0 0 0
0 0 0 0 0 0 0 0 0 0 0 0 0 0 0 0 0 0 0 0 0 0 0 0 0 0 0 0 0 0 0 0 0 0 0 0 0 0
0 0 0 0 0 0 0 0 0 0 0 0 0 0 0 0 0 0 0 0 0 0 0 0 0 0 0 0 0 0 0 0 0 0 0 0 0 0
0 0 0 0 0 0 0 0 0 0 0 0 0 0 0 0 0 0 0 0 0 0 0 0 0 0 0 0 0 0 0 0 0 0 0 0 0 0
0 0 0 0 0 0 0 0 0 0 0 0 0 0 0 0 0 0 0 0 0 0 0 0 0 0 0 0 0 0 0 0 0 0 0 0 0 0
0 0 0 0 0 0 0 0 0 0 0 0 0 0 0 0 0 0 0 0 0 0 0 0 0 0 0 0 0 0 0 0 0 0 0 0 0 0
0 0 0 0 0 0 0 0 0 0 0 0 0 0 0 0 0 0 0 0 0 0 0 0 0 0 0 0 0 0 0 0 0 0 0 0 0 0
0 0 0 0 0 0 0 0 0 0 0 0 0 0 0 0 0 0 0 0 0 0 0 0 0 0 0 0 0 0 0 0 0 0 0 0 0 0
0 0 0 0 0 0 0 0 0 0 0 0 0 0 0 0 0 0 0 0 0 0 0 0 0 0 0 0 0 0 0 0 0 0 0 0 0 0
0 0 0 0 0 0 0 0 0 0 0 0 0 0 0 0 0 0 0 0 0 0 0 0 0 0 0 0 0 0 0 0 0 0 0 0 0 0
0 0 0 0 0 0 0 0 0 0 0 0 0 0 0 0 0 0 0 0 0 0 0 0 0 0 0 0 0 0 0 0 0 0 0 0 0 0
0 0 0 0 0 0 0 0 0 0 0 0 0 0 0 0 0 0 0 0 0 0 0 0 0 0 0 0 0 0 0 0 0 0 0 0 0 0
Wind_Speed_500mb
102 102 105 99 97 99 99 99 98 75 80 99 89 88 84 79 77 79 87 82 73 68 68 56 47 46 40 36 32 29 25 23 22 20 17 15 13 9
108 110 109 107 105 105 103 102 104 110 93 92 92 89 86 85 85 89 97 95 90 80 78 65 54 53 46 40 35 32 28 26 25 21 20 16 13 10
107 111 112 108 110 109 110 107 105 107 114 113 108 105 98 95 89 93 103 102 97 84 83 73 60 58 51 45 41 36 33 30 29 24 23 21 19 18
108 111 113 107 107 104 108 115 111 106 106 114 110 111 114 114 109 103 109 115 106 89 86 79 67 62 57 51 45 40 36 33 32 28 27 25 23 22
98 104 111 113 98 97 108 110 108 108 109 111 109 105 107 110 111 111 110 112 104 93 91 89 76 68 62 54 49 44 39 36 34 32 30 28 26 25
101 96 100 116 108 111 111 115 107 115 114 115 114 106 108 109 108 110 107 108 110 102 94 93 84 72 65 56 54 48 42 39 36 35 32 29 29 28
93 106 99 109 107 107 111 111 113 113 117 109 113 103 107 103 106 107 101 104 108 108 103 97 87 78 67 60 57 50 44 41 39 36 33 32 31 28
69 63 60 69 78 86 95 105 111 113 116 114 114 104 114 113 103 98 94 104 97 110 105 102 89 76 66 61 55 49 44 42 39 37 34 33 30 28
42 49 62 61 61 66 76 83 86 89 95 102 98 98 108 112 104 88 90 101 111 117 110 102 88 75 72 55 55 57 49 42 39 38 37 33 29 28
41 44 45 47 47 54 62 61 67 75 81 88 86 90 100 100 93 83 77 92 95 79 110 92 81 75 67 60 72 63 50 41 41 41 36 32 30 30
52 53 55 58 60 59 64 69 67 57 47 50 56 68 71 69 74 68 73 82 84 77 87 94 87 80 65 72 64 55 47 44 42 38 33 31 30 27
45 47 53 58 59 62 68 67 68 61 58 55 50 48 49 54 63 63 65 82 87 75 89 86 88 81 58 63 55 52 47 42 38 34 34 31 28 30
46 46 45 47 51 54 53 54 56 58 57 54 50 45 43 49 55 54 64 78 100 84 87 89 84 81 56 52 57 51 46 43 41 40 33 31 30 26
45 44 44 45 44 44 44 44 44 44 39 38 35 36 39 48 54 56 64 79 93 96 75 80 72 76 77 52 60 57 51 46 44 38 32 32 25 25
38 42 44 43 43 42 37 37 33 30 31 32 33 34 37 42 49 58 68 72 76 62 57 72 67 74 74 44 43 65 63 58 51 38 33 29 25 26
43 39 36 38 37 32 31 30 27 26 25 27 29 30 34 41 48 58 65 62 61 58 44 61 75 56 55 39 36 59 58 49 55 42 36 31 29 28
47 38 32 31 34 33 33 31 27 26 24 22 23 27 34 43 49 51 55 58 62 62 54 55 40 40 38 38 44 47 56 47 34 41 33 31 31 29
39 38 37 35 35 36 35 32 29 26 24 21 16 24 35 38 41 43 45 50 55 56 50 44 43 45 45 41 31 48 49 42 32 33 32 30 30 28
38 39 38 38 38 36 34 32 29 26 19 15 14 21 35 37 40 44 42 39 39 42 40 40 39 42 49 47 46 40 30 36 35 33 30 30 26 22
46 42 38 36 35 34 33 31 27 23 18 12 9 15 28 33 34 33 32 30 34 40 41 39 37 32 29 36 37 38 33 29 29 27 22 20 23 21
48 45 39 35 32 31 31 29 26 20 14 8 3 9 18 24 30 31 31 31 38 44 45 40 32 30 25 23 26 34 30 27 22 19 19 17 14 15
42 42 40 38 34 30 28 27 24 20 16 11 4 5 13 19 26 31 31 37 38 36 36 32 28 26 24 21 21 21 21 21 21 21 19 18 15 10
36 37 37 34 32 33 31 29 26 26 25 21 19 21 21 24 29 35 37 38 35 30 26 26 26 23 17 16 15 19 19 16 13 13 14 15 16 17
Wind_Direction_500mb
261 257 259 262 261 259 257 259 259 257 261 268 264 268 267 261 257 244 235 230 227 230 230 222 226 228 228 229 233 236 239 242 245 251 258 260 267 268
262 262 263 265 265 266 264 261 259 259 257 264 268 272 272 266 262 254 239 231 224 222 228 222 217 226 226 229 231 235 239 244 249 252 257 256 258 247
261 260 266 270 269 269 271 270 266 262 259 264 265 267 265 263 262 256 245 232 227 219 223 219 213 223 226 228 230 232 236 241 250 253 259 257 256 246
262 262 265 267 270 274 272 271 273 273 268 266 266 266 267 266 265 258 247 232 223 217 218 217 210 219 224 227 231 232 234 238 247 251 256 257 257 254
267 265 266 267 269 271 271 269 271 272 272 270 271 265 263 261 255 247 240 230 224 216 215 218 211 214 222 227 232 234 235 239 244 249 252 252 256 257
271 273 273 268 271 268 269 267 269 271 269 269 270 262 260 257 250 243 236 228 221 214 213 215 211 208 220 225 232 234 237 240 243 249 251 248 255 254
267 271 276 276 270 274 272 272 270 269 267 267 262 257 259 252 250 247 237 230 218 215 211 212 210 205 217 222 230 236 238 241 243 247 248 251 254 252
267 267 262 258 257 260 262 266 267 267 270 269 269 256 262 264 256 247 235 221 211 213 212 212 209 203 211 223 228 235 241 242 245 246 244 252 253 245
294 287 285 286 284 281 273 268 264 260 261 262 259 259 261 266 267 251 239 234 218 214 205 210 206 202 210 217 223 227 229 242 238 240 245 246 239 234
296 300 301 302 300 299 302 296 285 275 269 265 263 265 264 267 270 273 256 226 210 208 203 203 199 201 208 212 222 232 221 225 235 239 239 234 236 224
297 296 292 287 286 287 288 283 282 283 277 272 272 264 262 264 263 246 226 217 198 196 200 204 193 200 201 214 225 224 211 221 232 231 231 226 207 205
304 299 297 295 295 293 292 284 276 280 274 270 272 267 262 259 257 255 247 221 200 192 196 195 192 198 193 212 214 212 210 216 223 221 207 205 207 212
329 325 316 310 309 307 302 291 284 281 275 272 271 262 252 249 245 239 237 229 208 196 197 193 191 196 200 194 198 200 205 206 208 203 207 212 206 211
338 329 319 315 314 313 309 303 294 279 282 284 277 263 250 242 236 228 221 213 214 212 204 194 195 199 202 185 184 196 197 195 201 205 211 214 208 211
340 333 327 325 320 324 323 313 306 301 301 294 279 261 247 242 231 215 211 211 208 195 185 190 196 205 207 208 224 196 189 197 203 211 214 217 214 212
346 338 336 334 335 338 345 348 338 323 310 297 283 262 236 219 209 203 196 189 188 183 183 189 200 212 207 217 205 188 192 192 202 206 210 215 214 221
351 343 346 358 0 5 4 359 352 339 320 309 288 244 210 193 187 188 191 185 183 178 177 181 182 178 190 184 171 180 186 197 197 205 206 208 220 236
353 5 10 12 14 11 7 359 351 343 334 316 293 237 205 193 187 183 187 185 182 175 172 173 179 173 163 148 165 178 187 191 189 193 202 218 229 232
14 18 16 14 13 12 9 358 345 342 336 317 275 222 207 193 189 182 181 184 182 182 179 179 171 174 161 153 163 177 198 193 199 203 207 212 227 228
20 19 16 14 14 12 10 5 356 347 341 326 283 230 209 201 190 184 184 186 179 168 159 158 162 166 171 170 169 177 181 191 198 206 212 207 212 231
23 21 20 20 19 22 20 17 7 0 357 349 290 215 204 201 183 182 175 169 167 162 157 156 156 161 159 172 170 174 184 188 197 207 215 228 241 244
22 25 26 28 26 30 32 30 25 19 17 17 55 153 176 180 178 165 161 153 150 151 149 150 154 159 166 171 173 177 182 190 193 206 219 226 230 225
19 21 25 28 34 35 40 44 49 54 56 62 81 100 116 137 143 141 142 141 143 143 148 157 159 163 163 166 180 183 189 198 207 221 238 254 258 263
Wind_Speed_850mb
102 102 105 99 97 99 99 99 98 75 80 99 89 88 84 79 77 79 87 82 73 68 68 56 47 46 40 36 32 29 25 23 22 20 17 15 13 9
108 110 109 107 105 105 103 102 104 110 93 92 92 89 86 85 85 89 97 95 90 80 78 65 54 53 46 40 35 32 28 26 25 21 20 16 13 10
107 111 112 108 110 109 110 107 105 107 114 113 108 105 98 95 89 93 103 102 97 84 83 73 60 58 51 45 41 36 33 30 29 24 23 21 19 18
108 111 113 107 107 104 108 115 111 106 106 114 110 111 114 114 109 103 109 115 106 89 86 79 67 62 57 51 45 40 36 33 32 28 27 25 23 22
98 104 111 113 98 97 108 110 108 108 109 111 109 105 107 110 111 111 110 112 104 93 91 89 76 68 62 54 49 44 39 36 34 32 30 28 26 25
101 96 100 116 108 111 111 115 107 115 114 115 114 106 108 109 108 110 107 108 110 102 94 93 84 72 65 56 54 48 42 39 36 35 32 29 29 28
93 106 99 109 107 107 111 111 113 113 117 109 113 103 107 103 106 107 101 104 108 108 103 97 87 78 67 60 57 50 44 41 39 36 33 32 31 28
69 63 60 69 78 86 95 105 111 113 116 114 114 104 114 113 103 98 94 104 97 110 105 102 89 76 66 61 55 49 44 42 39 37 34 33 30 28
42 49 62 61 61 66 76 83 86 89 95 102 98 98 108 112 104 88 90 101 111 117 110 102 88 75 72 55 55 57 49 42 39 38 37 33 29 28
41 44 45 47 47 54 62 61 67 75 81 88 86 90 100 100 93 83 77 92 95 79 110 92 81 75 67 60 72 63 50 41 41 41 36 32 30 30
52 53 55 58 60 59 64 69 67 57 47 50 56 68 71 69 74 68 73 82 84 77 87 94 87 80 65 72 64 55 47 44 42 38 33 31 30 27
45 47 53 58 59 62 68 67 68 61 58 55 50 48 49 54 63 63 65 82 87 75 89 86 88 81 58 63 55 52 47 42 38 34 34 31 28 30
46 46 45 47 51 54 53 54 56 58 57 54 50 45 43 49 55 54 64 78 100 84 87 89 84 81 56 52 57 51 46 43 41 40 33 31 30 26
45 44 44 45 44 44 44 44 44 44 39 38 35 36 39 48 54 56 64 79 93 96 75 80 72 76 77 52 60 57 51 46 44 38 32 32 25 25
38 42 44 43 43 42 37 37 33 30 31 32 33 34 37 42 49 58 68 72 76 62 57 72 67 74 74 44 43 65 63 58 51 38 33 29 25 26
43 39 36 38 37 32 31 30 27 26 25 27 29 30 34 41 48 58 65 62 61 58 44 61 75 56 55 39 36 59 58 49 55 42 36 31 29 28
47 38 32 31 34 33 33 31 27 26 24 22 23 27 34 43 49 51 55 58 62 62 54 55 40 40 38 38 44 47 56 47 34 41 33 31 31 29
39 38 37 35 35 36 35 32 29 26 24 21 16 24 35 38 41 43 45 50 55 56 50 44 43 45 45 41 31 48 49 42 32 33 32 30 30 28
38 39 38 38 38 36 34 32 29 26 19 15 14 21 35 37 40 44 42 39 39 42 40 40 39 42 49 47 46 40 30 36 35 33 30 30 26 22
46 42 38 36 35 34 33 31 27 23 18 12 9 15 28 33 34 33 32 30 34 40 41 39 37 32 29 36 37 38 33 29 29 27 22 20 23 21
48 45 39 35 32 31 31 29 26 20 14 8 3 9 18 24 30 31 31 31 38 44 45 40 32 30 25 23 26 34 30 27 22 19 19 17 14 15
42 42 40 38 34 30 28 27 24 20 16 11 4 5 13 19 26 31 31 37 38 36 36 32 28 26 24 21 21 21 21 21 21 21 19 18 15 10
36 37 37 34 32 33 31 29 26 26 25 21 19 21 21 24 29 35 37 38 35 30 26 26 26 23 17 16 15 19 19 16 13 13 14 15 16 17
Wind_Direction_850mb
261 257 259 262 261 259 257 259 259 257 261 268 264 268 267 261 257 244 235 230 227 230 230 222 226 228 228 229 233 236 239 242 245 251 258 260 267 268
262 262 263 265 265 266 264 261 259 259 257 264 268 272 272 266 262 254 239 231 224 222 228 222 217 226 226 229 231 235 239 244 249 252 257 256 258 247
261 260 266 270 269 269 271 270 266 262 259 264 265 267 265 263 262 256 245 232 227 219 223 219 213 223 226 228 230 232 236 241 250 253 259 257 256 246
262 262 265 267 270 274 272 271 273 273 268 266 266 266 267 266 265 258 247 232 223 217 218 217 210 219 224 227 231 232 234 238 247 251 256 257 257 254
267 265 266 267 269 271 271 269 271 272 272 270 271 265 263 261 255 247 240 230 224 216 215 218 211 214 222 227 232 234 235 239 244 249 252 252 256 257
271 273 273 268 271 268 269 267 269 271 269 269 270 262 260 257 250 243 236 228 221 214 213 215 211 208 220 225 232 234 237 240 243 249 251 248 255 254
267 271 276 276 270 274 272 272 270 269 267 267 262 257 259 252 250 247 237 230 218 215 211 212 210 205 217 222 230 236 238 241 243 247 248 251 254 252
267 267 262 258 257 260 262 266 267 267 270 269 269 256 262 264 256 247 235 221 211 213 212 212 209 203 211 223 228 235 241 242 245 246 244 252 253 245
294 287 285 286 284 281 273 268 264 260 261 262 259 259 261 266 267 251 239 234 218 214 205 210 206 202 210 217 223 227 229 242 238 240 245 246 239 234
296 300 301 302 300 299 302 296 285 275 269 265 263 265 264 267 270 273 256 226 210 208 203 203 199 201 208 212 222 232 221 225 235 239 239 234 236 224
297 296 292 287 286 287 288 283 282 283 277 272 272 264 262 264 263 246 226 217 198 196 200 204 193 200 201 214 225 224 211 221 232 231 231 226 207 205
304 299 297 295 295 293 292 284 276 280 274 270 272 267 262 259 257 255 247 221 200 192 196 195 192 198 193 212 214 212 210 216 223 221 207 205 207 212
329 325 316 310 309 307 302 291 284 281 275 272 271 262 252 249 245 239 237 229 208 196 197 193 191 196 200 194 198 200 205 206 208 203 207 212 206 211
338 329 319 315 314 313 309 303 294 279 282 284 277 263 250 242 236 228 221 213 214 212 204 194 195 199 202 185 184 196 197 195 201 205 211 214 208 211
340 333 327 325 320 324 323 313 306 301 301 294 279 261 247 242 231 215 211 211 208 195 185 190 196 205 207 208 224 196 189 197 203 211 214 217 214 212
346 338 336 334 335 338 345 348 338 323 310 297 283 262 236 219 209 203 196 189 188 183 183 189 200 212 207 217 205 188 192 192 202 206 210 215 214 221
351 343 346 358 0 5 4 359 352 339 320 309 288 244 210 193 187 188 191 185 183 178 177 181 182 178 190 184 171 180 186 197 197 205 206 208 220 236
353 5 10 12 14 11 7 359 351 343 334 316 293 237 205 193 187 183 187 185 182 175 172 173 179 173 163 148 165 178 187 191 189 193 202 218 229 232
14 18 16 14 13 12 9 358 345 342 336 317 275 222 207 193 189 182 181 184 182 182 179 179 171 174 161 153 163 177 198 193 199 203 207 212 227 228
20 19 16 14 14 12 10 5 356 347 341 326 283 230 209 201 190 184 184 186 179 168 159 158 162 166 171 170 169 177 181 191 198 206 212 207 212 231
23 21 20 20 19 22 20 17 7 0 357 349 290 215 204 201 183 182 175 169 167 162 157 156 156 161 159 172 170 174 184 188 197 207 215 228 241 244
22 25 26 28 26 30 32 30 25 19 17 17 55 153 176 180 178 165 161 153 150 151 149 150 154 159 166 171 173 177 182 190 193 206 219 226 230 225
19 21 25 28 34 35 40 44 49 54 56 62 81 100 116 137 143 141 142 141 143 143 148 157 159 163 163 166 180 183 189 198 207 221 238 254 258 263